Location: *
(12.5665°N, 8.3471°E)
Time: 14:00:00
(UTC+00:00)

Timation 2 Rocket - Pass Details

Date: 23 September 2019
Orbit: 908 x 1074 km, 70.0° (Epoch: 16 October)

Event Time Altitude Azimuth Distance (km) Brightness Sun altitude
Rises 03:21:21 0° 349° (N) 3,525 6.9 -28.7°
Reaches altitude 10° 03:23:53 10° 354° (N) 2,584 6.2 -28.1°
Maximum altitude 03:29:44 58° 72° (ENE) 1,058 4.4 -26.6°
Drops below altitude 10° 03:35:40 10° 151° (SSE) 2,631 6.5 -25.2°
Sets 03:38:15 0° 154° (SSE) 3,595 7.2 -24.6°
